This demonstration page uses our WeatherBlox Daily Observations layout. Learn more.

Left ArrowRight Arrow

Hourly Observations for May 30, 2019

Temp ( °F °C ) Dew Point ( °F °C ) Humidity (%) Winds ( mph kmh ) Pressure ( in mb ) Visibility ( mi km ) Precip ( " mm )
12:51 am 00:51 Cloudy with Mist and Fog 56 13.3 55 12.8 97 97 E 5 7 29.78 1008 4 6 0.00 0.00
1:51 am 01:51 Cloudy with Light Rain 56 13.3 55 12.8 97 97 Calm 29.78 1008 2 3 0.00 0.00
2:51 am 02:51 Cloudy with Drizzle 57 13.9 56 13.3 96 96 NE 6 9 29.78 1008 3 5 0.00 0.00
3:51 am 03:51 Cloudy with Mist and Fog 56 13.3 55 12.8 97 97 Calm 29.78 1008 3 5 0.00 0.00
4:51 am 04:51 Cloudy with Mist and Fog 57 13.9 55 12.8 93 93 Calm 29.80 1009 3 5 0.00 0.00
5:51 am 05:51 Cloudy with Mist and Fog 57 13.9 56 13.3 96 96 Calm 29.80 1009 3 5 0.00 0.00
6:51 am 06:51 Cloudy with Mist and Fog 57 13.9 56 13.3 96 96 Calm 29.82 1010 3 5 0.00 0.00
7:07 am 07:07 Cloudy with Mist and Fog 57 13.9 56 13.3 96 96 Calm 29.80 1009 3 5 0.00 0.00
7:32 am 07:32 Cloudy with Mist and Fog 57 13.9 56 13.3 96 96 Calm 29.80 1009 1 2 0.00 0.00
7:51 am 07:51 Cloudy with Mist and Fog 57 13.9 56 13.3 96 96 Calm 29.82 1010 1 2 0.00 0.00
8:51 am 08:51 Cloudy with Mist and Fog 59 15 57 13.9 93 93 Calm 29.85 1011 2 3 0.00 0.00
9:51 am 09:51 Cloudy with Mist and Fog 60 15.6 58 14.4 93 93 SSW 6 9 29.84 1010 2 3 0.00 0.00
10:51 am 10:51 Cloudy with Mist and Fog 62 16.7 59 15 90 90 SE 5 7 29.84 1010 4 6 0.00 0.00
11:51 am 11:51 Cloudy with Mist and Fog 67 19.4 60 15.6 79 79 SW 3 6 29.83 1010 6 10 0.00 0.00
12:51 pm 12:51 Cloudy with Mist and Fog 68 20 61 16.1 78 78 SW 3 6 29.83 1010 6 10 0.00 0.00
1:51 pm 13:51 Cloudy 68 20 59 15 73 73 SW 5 7 29.78 1008 10 16 0.00 0.00
2:27 pm 14:27 Cloudy 68 20 59 15 73 73 SW 5 7 29.78 1008 10 16 0.00 0.00
2:51 pm 14:51 Mostly Cloudy 69 20.6 60 15.6 73 73 SSW 7 11 29.78 1008 10 16 0.00 0.00
3:51 pm 15:51 Cloudy 70 21.1 61 16.1 73 73 S 9 15 29.76 1008 9 14 0.00 0.00
4:51 pm 16:51 Cloudy 69 20.6 61 16.1 76 76 SE 9 15 29.74 1007 8 13 0.00 0.00
5:21 pm 17:21 Cloudy with Light Rain 70 21.1 61 16.1 73 73 SE 9 15 29.72 1006 4 6 0.00 0.00
5:51 pm 17:51 Cloudy with Light Rain 70 21.1 61 16.1 73 73 SE 9 15 29.74 1007 3 5 0.00 0.00
6:04 pm 18:04 Cloudy with Heavy Rain 70 21 61 16 73 73 SE 8 13 29.71 1006 1 2 0.00 0.00
6:07 pm 18:07 Cloudy with Rain 70 21 61 16 73 73 SE 8 13 29.71 1006 2 3 0.00 0.00
6:21 pm 18:21 Cloudy with Thunderstorms 63 17.2 61 16.1 93 93 SE 8 13 29.71 1006 2 3 0.00 0.00
6:49 pm 18:49 Cloudy with Light Rain 63 17 61 16 94 94 Calm 29.73 1007 3 5 0.00 0.00
6:50 pm 18:50 Cloudy with Light Rain 63 17.2 61 16.1 93 93 Calm 29.75 1007 3 5 0.00 0.00
7:32 pm 19:32 Cloudy with Rain 63 17 61 16 94 94 ESE 8 13 29.73 1007 1 2 0.00 0.00
7:51 pm 19:51 Cloudy with Rain 63 17.2 61 16.1 93 93 ESE 8 13 29.75 1007 1 2 0.00 0.00
8:34 pm 20:34 Cloudy with Mist and Fog 63 17.2 61 16.1 93 93 E 5 7 29.73 1007 5 8 0.00 0.00
8:51 pm 20:51 Cloudy 63 17.2 61 16.1 93 93 E 5 7 29.75 1007 10 16 0.00 0.00
9:51 pm 21:51 Mostly Cloudy 62 16.7 62 16.7 100 100 Calm 29.72 1006 8 13 0.00 0.00
10:51 pm 22:51 Mostly Cloudy with Mist and Fog 63 17.2 63 17.2 100 100 Calm 29.71 1006 6 10 0.00 0.00
11:51 pm 23:51 Cloudy with Mist and Fog 64 17.8 63 17.2 96 96 Calm 29.70 1006 4 6 0.00 0.00

Powered by Vaisala Xweather